Location: Goettingen
(51.5300°N, 9.9433°E)
Time: 18:31:59
(UTC+02:00)

ISS - Pass Details

Date: 14 May 2026
Orbit: 414 x 424 km, 51.6° (Epoch: 13 May)

Event Time Altitude Azimuth Distance (km) Brightness Sun altitude
Rises 22:32:04 0° 267° (W) 2,351 0.6 -11.0°
Reaches altitude 10° 22:34:10 10° 268° (W) 1,489 -0.4 -11.2°
Maximum altitude 22:37:30 87° 353° (N) 421 -3.8 -11.6°
Drops below altitude 10° 22:40:52 10° 87° (E) 1,492 -1.3 -11.9°
Enters shadow 22:41:23 - 87° (E) 1,708 -1.0 -11.9°
